,,,PA_Meas_PMT16A,,PR_Meas_QMR101_102,,RH_Meas_QMH101,,SR_Meas_QMS101,,TA_Meas_QMH101,,GenWind,,GenWind,
date,time,status,PA,status,PR,status,RH,status,SR,status,TA,status,DirAvg,status,SpdAvg,
2008-12-26, 00:00:04,VALID,1008.87,VALID,0,VALID,95.7337,VALID,0,VALID,23.5771,VALID,59,VALID,0.609375,
2008-12-26, 00:01:04,VALID,1008.84,VALID,0,VALID,95.7185,VALID,0,VALID,23.5771,VALID,78,VALID,0.708984,
2008-12-26, 00:02:04,VALID,1008.82,VALID,0,VALID,95.7261,VALID,0,VALID,23.5771,VALID,68,VALID,0.844531,
2008-12-26, 00:03:04,VALID,1008.82,VALID,0,VALID,95.7413,VALID,0,VALID,23.5771,VALID,70,VALID,0.817187,
2008-12-26, 00:04:04,VALID,1008.84,VALID,0,VALID,95.7185,VALID,0,VALID,23.5576,VALID,62,VALID,0.203516,
2008-12-26, 00:05:04,VALID,1008.83,VALID,0,VALID,95.749,VALID,0,VALID,23.5576,VALID,76,VALID,0.258203,
2008-12-26, 00:06:04,VALID,1008.84,VALID,0,VALID,95.7337,VALID,0,VALID,23.5771,VALID,67,VALID,1.23789,
2008-12-26, 00:07:04,VALID,1008.82,VALID,0,VALID,95.7185,VALID,0,VALID,23.5576,VALID,41,VALID,0.313281,
2008-12-26, 00:08:04,VALID,1008.8,VALID,0,VALID,95.7185,VALID,0,VALID,23.5576,VALID,83,VALID,0.689062,
2008-12-26, 00:09:04,VALID,1008.83,VALID,0,VALID,95.7185,VALID,0,VALID,23.5771,VALID,107,VALID,0.911328,
2008-12-26, 00:10:04,VALID,1008.82,VALID,0,VALID,95.7261,VALID,0,VALID,23.5576,VALID,91,VALID,1.13984,
2008-12-26, 00:11:04,VALID,1008.82,VALID,0,VALID,95.7261,VALID,0,VALID,23.5381,VALID,89,VALID,1.27617,
2008-12-26, 00:12:04,VALID,1008.84,VALID,0,VALID,95.7185,VALID,0,VALID,23.5984,VALID,80,VALID,0.552734,
2008-12-26, 00:13:04,VALID,1008.83,VALID,0,VALID,95.7337,VALID,0,VALID,23.5576,VALID,78,VALID,0.536328,
2008-12-26, 00:14:04,VALID,1008.83,VALID,0,VALID,95.7413,VALID,0,VALID,23.5576,VALID,83,VALID,1.32344,
2008-12-26, 00:15:04,VALID,1008.8,VALID,0,VALID,95.7261,VALID,0,VALID,23.5576,VALID,61,VALID,0.874609,
2008-12-26, 00:16:04,VALID,1008.79,VALID,0,VALID,95.7413,VALID,0.105969,VALID,23.5771,VALID,48,VALID,0.316016,
2008-12-26, 00:17:04,VALID,1008.76,VALID,0,VALID,95.7261,VALID,0,VALID,23.5576,VALID,72,VALID,0.805469,
2008-12-26, 00:18:04,VALID,1008.76,VALID,0,VALID,95.7337,VALID,0,VALID,23.5576,VALID,66,VALID,1.29336,
2008-12-26, 00:19:04,VALID,1008.74,VALID,0,VALID,95.7337,VALID,0,VALID,23.5381,VALID,76,VALID,0.795703,
2008-12-26, 00:20:04,VALID,1008.69,VALID,0,VALID,95.7413,VALID,0,VALID,23.5381,VALID,98,VALID,0.675391,
2008-12-26, 00:21:04,VALID,1008.67,VALID,0,VALID,95.7337,VALID,0,VALID,23.5576,VALID,86,VALID,1.01875,
2008-12-26, 00:22:04,VALID,1008.69,VALID,0,VALID,95.7413,VALID,0,VALID,23.5381,VALID,104,VALID,1.01055,
2008-12-26, 00:23:04,VALID,1008.7,VALID,0,VALID,95.749,VALID,0,VALID,23.5381,VALID,94,VALID,0.816016,
2008-12-26, 00:24:04,VALID,1008.71,VALID,0,VALID,95.7185,VALID,0,VALID,23.5576,VALID,95,VALID,0.909375,
2008-12-26, 00:25:04,VALID,1008.71,VALID,0,VALID,95.7337,VALID,0,VALID,23.5381,VALID,90,VALID,1.1707,
2008-12-26, 00:26:04,VALID,1008.69,VALID,0,VALID,95.7566,VALID,0,VALID,23.5576,VALID,85,VALID,0.902344,
2008-12-26, 00:27:04,VALID,1008.67,VALID,0,VALID,95.7261,VALID,0,VALID,23.5576,VALID,71,VALID,1.10117,
2008-12-26, 00:28:04,VALID,1008.68,VALID,0,VALID,95.7413,VALID,0,VALID,23.5381,VALID,84,VALID,0.658203,
2008-12-26, 00:29:04,VALID,1008.67,VALID,0,VALID,95.7642,VALID,0,VALID,23.5381,VALID,79,VALID,0.564844,
2008-12-26, 00:30:04,VALID,1008.67,VALID,0,VALID,95.749,VALID,0,VALID,23.5381,VALID,79,VALID,0.442969,
2008-12-26, 00:31:04,VALID,1008.62,VALID,0,VALID,95.749,VALID,0,VALID,23.5186,VALID,71,VALID,0.621484,
2008-12-26, 00:32:04,VALID,1008.58,VALID,0,VALID,95.7337,VALID,0,VALID,23.5381,VALID,106,VALID,1.17617,
2008-12-26, 00:33:04,VALID,1008.58,VALID,0,VALID,95.749,VALID,0,VALID,23.5186,VALID,74,VALID,0.798047,
2008-12-26, 00:34:04,VALID,1008.61,VALID,0,VALID,95.7413,VALID,0,VALID,23.5381,VALID,81,VALID,0.730469,
2008-12-26, 00:35:04,VALID,1008.58,VALID,0,VALID,95.749,VALID,0,VALID,23.5186,VALID,73,VALID,1.1043,
2008-12-26, 00:36:04,VALID,1008.57,VALID,0,VALID,95.749,VALID,0,VALID,23.5186,VALID,88,VALID,0.926953,
2008-12-26, 00:37:04,VALID,1008.55,VALID,0,VALID,95.7566,VALID,0,VALID,23.5204,VALID,81,VALID,0.802344,
2008-12-26, 00:38:04,VALID,1008.54,VALID,0,VALID,95.749,VALID,0,VALID,23.4992,VALID,82,VALID,0.867969,
2008-12-26, 00:39:04,VALID,1008.52,VALID,0,VALID,95.7566,VALID,0,VALID,23.4992,VALID,91,VALID,0.709375,
2008-12-26, 00:40:04,VALID,1008.48,VALID,0,VALID,95.7413,VALID,0,VALID,23.4974,VALID,93,VALID,1.07344,
2008-12-26, 00:41:04,VALID,1008.47,VALID,0,VALID,95.749,VALID,0,VALID,23.4974,VALID,65,VALID,0.3375,
2008-12-26, 00:42:04,VALID,1008.42,VALID,0,VALID,95.7566,VALID,0,VALID,23.4974,VALID,89,VALID,0.952344,
2008-12-26, 00:43:04,VALID,1008.43,VALID,0,VALID,95.749,VALID,0.105969,VALID,23.4584,VALID,79,VALID,0.432813,
2008-12-26, 00:44:04,VALID,1008.42,VALID,0,VALID,95.7337,VALID,0.105969,VALID,23.4779,VALID,65,VALID,0.990234,
2008-12-26, 00:45:04,VALID,1008.43,VALID,0,VALID,95.7871,VALID,0.105969,VALID,23.4584,VALID,63,VALID,0.794922,
2008-12-26, 00:46:04,VALID,1008.4,VALID,0,VALID,95.7718,VALID,0,VALID,23.4584,VALID,66,VALID,1.13711,
2008-12-26, 00:47:04,VALID,1008.39,VALID,0,VALID,95.7642,VALID,0.105969,VALID,23.4584,VALID,61,VALID,1.05664,
2008-12-26, 00:48:04,VALID,1008.38,VALID,0,VALID,95.7566,VALID,0,VALID,23.4779,VALID,70,VALID,0.476563,
2008-12-26, 00:49:04,VALID,1008.39,VALID,0,VALID,95.7718,VALID,0.105969,VALID,23.4974,VALID,62,VALID,0.361328,
2008-12-26, 00:50:04,VALID,1008.34,VALID,0,VALID,95.7566,VALID,0.105969,VALID,23.4779,VALID,81,VALID,0.808203,
2008-12-26, 00:51:04,VALID,1008.33,VALID,0,VALID,95.7642,VALID,0.105969,VALID,23.4797,VALID,79,VALID,0.0289063,
2008-12-26, 00:52:04,VALID,1008.29,VALID,0,VALID,95.7566,VALID,0.105969,VALID,23.4779,VALID,107,VALID,0.322266,
2008-12-26, 00:53:04,VALID,1008.3,VALID,0,VALID,95.7566,VALID,0,VALID,23.4797,VALID,83,VALID,0.727734,
2008-12-26, 00:54:04,VALID,1008.28,VALID,0,VALID,95.7566,VALID,0,VALID,23.4797,VALID,87,VALID,0.734375,
2008-12-26, 00:55:04,VALID,1008.29,VALID,0,VALID,95.7718,VALID,0.105969,VALID,23.4779,VALID,85,VALID,0.973047,
2008-12-26, 00:56:04,VALID,1008.32,VALID,0,VALID,95.7871,VALID,0,VALID,23.4797,VALID,68,VALID,1.05508,
2008-12-26, 00:57:04,VALID,1008.35,VALID,0,VALID,95.8023,VALID,0.105969,VALID,23.4584,VALID,61,VALID,0.614453,
2008-12-26, 00:58:04,VALID,1008.39,VALID,0,VALID,95.7795,VALID,0,VALID,23.4779,VALID,88,VALID,0.171484,
2008-12-26, 00:59:04,VALID,1008.37,VALID,0,VALID,95.7718,VALID,0.105969,VALID,23.4584,VALID,69,VALID,0.521094,
2008-12-26, 01:00:04,VALID,1008.37,VALID,0,VALID,95.7871,VALID,0.105969,VALID,23.4974,VALID,103,VALID,0.29375,
2008-12-26, 01:01:04,VALID,1008.43,VALID,0,VALID,95.7947,VALID,0,VALID,23.4779,VALID,103,VALID,0.205859,
2008-12-26, 01:02:04,VALID,1008.42,VALID,0,VALID,95.7947,VALID,0.105969,VALID,23.4779,VALID,127,VALID,0.523438,
2008-12-26, 01:03:04,VALID,1008.41,VALID,0,VALID,95.7795,VALID,0,VALID,23.4779,VALID,127,VALID,0.0511719,
2008-12-26, 01:04:04,VALID,1008.4,VALID,0,VALID,95.8023,VALID,0.105969,VALID,23.4779,VALID,127,VALID,0.178906,
2008-12-26, 01:05:04,VALID,1008.38,VALID,0,VALID,95.7871,VALID,0.105969,VALID,23.4974,VALID,118,VALID,0.482812,
2008-12-26, 01:06:04,VALID,1008.37,VALID,0,VALID,95.7947,VALID,0,VALID,23.5169,VALID,107,VALID,0.51875,
2008-12-26, 01:07:04,VALID,1008.42,VALID,0,VALID,95.7795,VALID,0,VALID,23.4974,VALID,99,VALID,0.236328,
2008-12-26, 01:08:04,VALID,1008.47,VALID,0,VALID,95.8023,VALID,0,VALID,23.5186,VALID,153,VALID,0.626172,
2008-12-26, 01:09:04,VALID,1008.53,VALID,0,VALID,95.7947,VALID,0.105969,VALID,23.4974,VALID,114,VALID,0.119141,
2008-12-26, 01:10:04,VALID,1008.67,VALID,0,VALID,95.7871,VALID,0.105969,VALID,23.5363,VALID,330,VALID,1.71523,
2008-12-26, 01:11:04,VALID,1008.68,VALID,0.5,VALID,95.7947,VALID,0,VALID,23.5363,VALID,307,VALID,1.23398,
2008-12-26, 01:12:04,VALID,1008.67,VALID,0,VALID,95.7947,VALID,0.105969,VALID,23.5363,VALID,317,VALID,0.958594,
2008-12-26, 01:13:04,VALID,1008.66,VALID,0,VALID,95.7871,VALID,0,VALID,23.5363,VALID,317,VALID,0.697266,
2008-12-26, 01:14:04,VALID,1008.62,VALID,0,VALID,95.7718,VALID,0.105969,VALID,23.5363,VALID,309,VALID,0.107422,
2008-12-26, 01:15:04,VALID,1008.6,VALID,0,VALID,95.7947,VALID,0.105969,VALID,23.5363,VALID,310,VALID,0.857422,
2008-12-26, 01:16:04,VALID,1008.54,VALID,0,VALID,95.7795,VALID,0.105969,VALID,23.5558,VALID,310,VALID,0.143359,
2008-12-26, 01:17:04,VALID,1008.5,VALID,0,VALID,95.7871,VALID,0.105969,VALID,23.5363,VALID,298,VALID,1.34063,
2008-12-26, 01:18:04,VALID,1008.52,VALID,0.5,VALID,95.7718,VALID,0.105969,VALID,23.5363,VALID,318,VALID,0.775,
2008-12-26, 01:19:04,VALID,1008.53,VALID,0,VALID,95.7795,VALID,0.105969,VALID,23.5169,VALID,327,VALID,0.852734,
2008-12-26, 01:20:04,VALID,1008.51,VALID,0,VALID,95.7871,VALID,0.105969,VALID,23.5363,VALID,223,VALID,0.0902344,
2008-12-26, 01:21:04,VALID,1008.48,VALID,0,VALID,95.7871,VALID,0.105969,VALID,23.5753,VALID,223,VALID,0.10625,
2008-12-26, 01:22:04,VALID,1008.46,VALID,0,VALID,95.7871,VALID,0.105969,VALID,23.5558,VALID,66,VALID,0.300391,
2008-12-26, 01:23:04,VALID,1008.44,VALID,0,VALID,95.7718,VALID,0.105969,VALID,23.5753,VALID,261,VALID,0.688672,
2008-12-26, 01:24:04,VALID,1008.43,VALID,0,VALID,95.7795,VALID,0.105969,VALID,23.5753,VALID,350,VALID,0.609766,
2008-12-26, 01:25:04,VALID,1008.42,VALID,0,VALID,95.7795,VALID,0,VALID,23.5576,VALID,21,VALID,0.447656,
2008-12-26, 01:26:04,VALID,1008.44,VALID,0,VALID,95.749,VALID,0,VALID,23.5771,VALID,333,VALID,0.708203,
2008-12-26, 01:27:04,VALID,1008.39,VALID,0,VALID,95.749,VALID,0,VALID,23.5576,VALID,312,VALID,0.779297,
2008-12-26, 01:28:04,VALID,1008.37,VALID,0,VALID,95.7718,VALID,0,VALID,23.5966,VALID,354,VALID,0.432422,
2008-12-26, 01:29:04,VALID,1008.36,VALID,0,VALID,95.7718,VALID,0,VALID,23.5771,VALID,9,VALID,0.719922,
2008-12-26, 01:30:04,VALID,1008.35,VALID,0,VALID,95.749,VALID,0,VALID,23.5966,VALID,322,VALID,0.154687,
2008-12-26, 01:31:04,VALID,1008.35,VALID,0,VALID,95.7413,VALID,0,VALID,23.5771,VALID,322,VALID,0,
2008-12-26, 01:32:04,VALID,1008.32,VALID,0,VALID,95.749,VALID,0,VALID,23.5966,VALID,38,VALID,0.591406,
2008-12-26, 01:33:04,VALID,1008.31,VALID,0,VALID,95.7566,VALID,0,VALID,23.6161,VALID,6,VALID,0.426953,
2008-12-26, 01:34:04,VALID,1008.27,VALID,0,VALID,95.7566,VALID,0,VALID,23.6356,VALID,6,VALID,0.00546875,
2008-12-26, 01:35:04,VALID,1008.29,VALID,0,VALID,95.7566,VALID,0,VALID,23.655,VALID,6,VALID,0,
2008-12-26, 01:36:04,VALID,1008.26,VALID,0,VALID,95.7413,VALID,0,VALID,23.6161,VALID,38,VALID,0.313281,
2008-12-26, 01:37:04,VALID,1008.27,VALID,0,VALID,95.7413,VALID,0,VALID,23.5966,VALID,353,VALID,0.385156,
2008-12-26, 01:38:04,VALID,1008.23,VALID,0,VALID,95.7566,VALID,0,VALID,23.5966,VALID,353,VALID,0.158984,
2008-12-26, 01:39:04,VALID,1008.23,VALID,0,VALID,95.7642,VALID,0,VALID,23.5771,VALID,353,VALID,0,
2008-12-26, 01:40:04,VALID,1008.23,VALID,0,VALID,95.7337,VALID,0,VALID,23.5966,VALID,353,VALID,0,
2008-12-26, 01:41:04,VALID,1008.21,VALID,0,VALID,95.7413,VALID,0.105969,VALID,23.5771,VALID,353,VALID,0,
2008-12-26, 01:42:04,VALID,1008.19,VALID,0,VALID,95.749,VALID,0,VALID,23.6161,VALID,353,VALID,0,
2008-12-26, 01:43:04,VALID,1008.21,VALID,0,VALID,95.749,VALID,0,VALID,23.5558,VALID,353,VALID,0,
2008-12-26, 01:44:04,VALID,1008.21,VALID,0,VALID,95.7642,VALID,0,VALID,23.5771,VALID,353,VALID,0,
2008-12-26, 01:45:04,VALID,1008.23,VALID,0,VALID,95.7566,VALID,0,VALID,23.5771,VALID,353,VALID,0,
2008-12-26, 01:46:04,VALID,1008.22,VALID,0,VALID,95.749,VALID,0,VALID,23.5789,VALID,353,VALID,0,
2008-12-26, 01:47:04,VALID,1008.22,VALID,0,VALID,95.749,VALID,0,VALID,23.5381,VALID,353,VALID,0,
2008-12-26, 01:48:04,VALID,1008.24,VALID,0,VALID,95.7337,VALID,0,VALID,23.5381,VALID,353,VALID,0,
2008-12-26, 01:49:04,VALID,1008.22,VALID,0,VALID,95.7413,VALID,0,VALID,23.5771,VALID,353,VALID,0,
2008-12-26, 01:50:04,VALID,1008.18,VALID,0,VALID,95.7642,VALID,0,VALID,23.5576,VALID,353,VALID,0,
2008-12-26, 01:51:04,VALID,1008.21,VALID,0,VALID,95.7642,VALID,0,VALID,23.5576,VALID,17,VALID,0,
2008-12-26, 01:52:04,VALID,1008.22,VALID,0,VALID,95.749,VALID,0,VALID,23.5381,VALID,17,VALID,0,
2008-12-26, 01:53:04,VALID,1008.18,VALID,0,VALID,95.749,VALID,0,VALID,23.5381,VALID,17,VALID,0,
2008-12-26, 01:54:04,VALID,1008.2,VALID,0,VALID,95.749,VALID,0,VALID,23.5381,VALID,17,VALID,0,
2008-12-26, 01:55:04,VALID,1008.2,VALID,0,VALID,95.7566,VALID,0,VALID,23.5381,VALID,17,VALID,0,
2008-12-26, 01:56:04,VALID,1008.2,VALID,0,VALID,95.7413,VALID,0,VALID,23.5381,VALID,17,VALID,0,
2008-12-26, 01:57:04,VALID,1008.15,VALID,0,VALID,95.749,VALID,0,VALID,23.5381,VALID,17,VALID,0,
2008-12-26, 01:58:04,VALID,1008.13,VALID,0,VALID,95.7413,VALID,0,VALID,23.4992,VALID,17,VALID,0,
2008-12-26, 01:59:04,VALID,1008.14,VALID,0,VALID,95.749,VALID,0,VALID,23.4992,VALID,17,VALID,0,
2008-12-26, 02:00:04,VALID,1008.09,VALID,0,VALID,95.7337,VALID,0,VALID,23.4992,VALID,17,VALID,0,
2008-12-26, 02:01:04,VALID,1008.07,VALID,0,VALID,95.7337,VALID,0,VALID,23.4797,VALID,17,VALID,0,
2008-12-26, 02:02:04,VALID,1008.08,VALID,0,VALID,95.7337,VALID,0,VALID,23.4797,VALID,17,VALID,0,
2008-12-26, 02:03:04,VALID,1008.07,VALID,0,VALID,95.749,VALID,0,VALID,23.4797,VALID,17,VALID,0,
2008-12-26, 02:04:04,VALID,1008.07,VALID,0,VALID,95.7566,VALID,0,VALID,23.4797,VALID,17,VALID,0,
2008-12-26, 02:05:04,VALID,1008.1,VALID,0,VALID,95.7261,VALID,0,VALID,23.4974,VALID,17,VALID,0,
2008-12-26, 02:06:04,VALID,1008.08,VALID,0,VALID,95.7566,VALID,0,VALID,23.4992,VALID,17,VALID,0,
2008-12-26, 02:07:04,VALID,1008.1,VALID,0,VALID,95.7642,VALID,0,VALID,23.5381,VALID,17,VALID,0,
2008-12-26, 02:08:04,VALID,1008.08,VALID,0,VALID,95.7337,VALID,0,VALID,23.5381,VALID,17,VALID,0,
2008-12-26, 02:09:04,VALID,1008.09,VALID,0,VALID,95.7337,VALID,0,VALID,23.5381,VALID,17,VALID,0,
2008-12-26, 02:10:04,VALID,1008.09,VALID,0,VALID,95.749,VALID,0,VALID,23.5381,VALID,17,VALID,0,
2008-12-26, 02:11:04,VALID,1008.06,VALID,0,VALID,95.7413,VALID,0,VALID,23.5169,VALID,17,VALID,0,
2008-12-26, 02:12:04,VALID,1008.09,VALID,0,VALID,95.7566,VALID,0,VALID,23.5381,VALID,17,VALID,0,
2008-12-26, 02:13:04,VALID,1008.07,VALID,0,VALID,95.749,VALID,0,VALID,23.5186,VALID,17,VALID,0,
2008-12-26, 02:14:04,VALID,1008.06,VALID,0,VALID,95.749,VALID,0,VALID,23.5186,VALID,17,VALID,0,
2008-12-26, 02:15:04,VALID,1008.03,VALID,0,VALID,95.7413,VALID,0,VALID,23.4974,VALID,17,VALID,0,
2008-12-26, 02:16:04,VALID,1008.06,VALID,0,VALID,95.749,VALID,0,VALID,23.4992,VALID,17,VALID,0,
2008-12-26, 02:17:04,VALID,1008.04,VALID,0,VALID,95.749,VALID,0,VALID,23.4797,VALID,17,VALID,0,
2008-12-26, 02:18:04,VALID,1008.02,VALID,0,VALID,95.7413,VALID,0,VALID,23.4797,VALID,17,VALID,0,
2008-12-26, 02:19:04,VALID,1008.04,VALID,0,VALID,95.7566,VALID,0,VALID,23.4584,VALID,17,VALID,0,
2008-12-26, 02:20:04,VALID,1008.02,VALID,0,VALID,95.749,VALID,0,VALID,23.4992,VALID,17,VALID,0,
2008-12-26, 02:21:04,VALID,1008,VALID,0,VALID,95.749,VALID,0,VALID,23.4584,VALID,17,VALID,0,
2008-12-26, 02:22:04,VALID,1008,VALID,0,VALID,95.749,VALID,0,VALID,23.4797,VALID,17,VALID,0,
2008-12-26, 02:23:04,VALID,1007.98,VALID,0,VALID,95.7566,VALID,0,VALID,23.4797,VALID,17,VALID,0,
2008-12-26, 02:24:04,VALID,1007.98,VALID,0,VALID,95.749,VALID,0,VALID,23.4584,VALID,17,VALID,0,
2008-12-26, 02:25:04,VALID,1008.01,VALID,0,VALID,95.7566,VALID,0,VALID,23.4602,VALID,17,VALID,0,
2008-12-26, 02:26:04,VALID,1007.96,VALID,0,VALID,95.7566,VALID,0,VALID,23.4602,VALID,17,VALID,0,
2008-12-26, 02:27:04,VALID,1007.98,VALID,0,VALID,95.749,VALID,0,VALID,23.4797,VALID,17,VALID,0,
2008-12-26, 02:28:04,VALID,1007.94,VALID,0,VALID,95.7566,VALID,0,VALID,23.4389,VALID,17,VALID,0,
2008-12-26, 02:29:04,VALID,1007.92,VALID,0,VALID,95.749,VALID,0,VALID,23.4992,VALID,17,VALID,0,
2008-12-26, 02:30:04,VALID,1007.9,VALID,0,VALID,95.7566,VALID,0,VALID,23.4797,VALID,17,VALID,0,
2008-12-26, 02:31:04,VALID,1007.89,VALID,0,VALID,95.7642,VALID,0,VALID,23.4797,VALID,17,VALID,0,
2008-12-26, 02:32:04,VALID,1007.86,VALID,0,VALID,95.7718,VALID,0,VALID,23.4797,VALID,17,VALID,0,
2008-12-26, 02:33:04,VALID,1007.81,VALID,0,VALID,95.7718,VALID,0,VALID,23.4797,VALID,17,VALID,0,
2008-12-26, 02:34:04,VALID,1007.84,VALID,0,VALID,95.7642,VALID,0,VALID,23.4797,VALID,17,VALID,0,
2008-12-26, 02:35:04,VALID,1007.8,VALID,0,VALID,95.7642,VALID,0,VALID,23.4602,VALID,17,VALID,0,
2008-12-26, 02:36:04,VALID,1007.8,VALID,0,VALID,95.7718,VALID,0.105969,VALID,23.4602,VALID,16,VALID,0,
2008-12-26, 02:37:04,VALID,1007.79,VALID,0,VALID,95.749,VALID,0,VALID,23.4194,VALID,16,VALID,0,
2008-12-26, 02:38:04,VALID,1007.78,VALID,0,VALID,95.7795,VALID,0,VALID,23.4017,VALID,22,VALID,0,
2008-12-26, 02:39:04,VALID,1007.78,VALID,0,VALID,95.7718,VALID,0,VALID,23.4407,VALID,28,VALID,0,
2008-12-26, 02:40:04,VALID,1007.78,VALID,0,VALID,95.7795,VALID,0,VALID,23.4212,VALID,28,VALID,0,
2008-12-26, 02:41:04,VALID,1007.74,VALID,0,VALID,95.7642,VALID,0,VALID,23.423,VALID,28,VALID,0,
2008-12-26, 02:42:04,VALID,1007.74,VALID,0,VALID,95.7718,VALID,0,VALID,23.4017,VALID,52,VALID,0,
2008-12-26, 02:43:04,VALID,1007.72,VALID,0,VALID,95.7642,VALID,0,VALID,23.4017,VALID,52,VALID,0,
2008-12-26, 02:44:04,VALID,1007.69,VALID,0,VALID,95.7718,VALID,0,VALID,23.423,VALID,56,VALID,0,
2008-12-26, 02:45:04,VALID,1007.69,VALID,0,VALID,95.7642,VALID,0,VALID,23.4017,VALID,56,VALID,0,
2008-12-26, 02:46:04,VALID,1007.69,VALID,0,VALID,95.7566,VALID,0,VALID,23.423,VALID,56,VALID,0,
2008-12-26, 02:47:04,VALID,1007.66,VALID,0,VALID,95.7718,VALID,0,VALID,23.4017,VALID,64,VALID,0.389844,
2008-12-26, 02:48:04,VALID,1007.68,VALID,0,VALID,95.7871,VALID,0,VALID,23.462,VALID,64,VALID,0.401172,
2008-12-26, 02:49:04,VALID,1007.66,VALID,0,VALID,95.7642,VALID,0,VALID,23.4212,VALID,64,VALID,0.359766,
2008-12-26, 02:50:04,VALID,1007.66,VALID,0,VALID,95.7718,VALID,0,VALID,23.4425,VALID,64,VALID,0,
2008-12-26, 02:51:04,VALID,1007.64,VALID,0,VALID,95.7718,VALID,0,VALID,23.4407,VALID,64,VALID,0,
2008-12-26, 02:52:04,VALID,1007.64,VALID,0,VALID,95.7718,VALID,0,VALID,23.4407,VALID,64,VALID,0,
2008-12-26, 02:53:04,VALID,1007.64,VALID,0,VALID,95.7795,VALID,0,VALID,23.4407,VALID,64,VALID,0,
2008-12-26, 02:54:04,VALID,1007.68,VALID,0,VALID,95.7795,VALID,0,VALID,23.4602,VALID,64,VALID,0.380078,
2008-12-26, 02:55:04,VALID,1007.66,VALID,0,VALID,95.7642,VALID,0,VALID,23.4815,VALID,64,VALID,0.392188,
2008-12-26, 02:56:04,VALID,1007.68,VALID,0,VALID,95.7642,VALID,0,VALID,23.4407,VALID,74,VALID,0.387891,
2008-12-26, 02:57:04,VALID,1007.68,VALID,0,VALID,95.7718,VALID,0,VALID,23.4407,VALID,74,VALID,0.113281,
2008-12-26, 02:58:04,VALID,1007.69,VALID,0,VALID,95.7718,VALID,0,VALID,23.4407,VALID,74,VALID,0.347656,
2008-12-26, 02:59:04,VALID,1007.67,VALID,0,VALID,95.7871,VALID,0,VALID,23.4212,VALID,75,VALID,0.582812,
2008-12-26, 03:00:04,VALID,1007.66,VALID,0,VALID,95.7718,VALID,0,VALID,23.4407,VALID,85,VALID,0.851563,
2008-12-26, 03:01:04,VALID,1007.7,VALID,0,VALID,95.7718,VALID,0,VALID,23.4407,VALID,69,VALID,0.977344,
2008-12-26, 03:02:04,VALID,1007.63,VALID,0,VALID,95.7718,VALID,0,VALID,23.4425,VALID,79,VALID,0.843359,
2008-12-26, 03:03:04,VALID,1007.63,VALID,0,VALID,95.7718,VALID,0,VALID,23.4602,VALID,87,VALID,0.631641,
2008-12-26, 03:04:04,VALID,1007.67,VALID,0,VALID,95.7795,VALID,0,VALID,23.4407,VALID,88,VALID,0.512109,
2008-12-26, 03:05:04,VALID,1007.69,VALID,0,VALID,95.7795,VALID,0,VALID,23.4815,VALID,82,VALID,0,
2008-12-26, 03:06:04,VALID,1007.7,VALID,0,VALID,95.7795,VALID,0,VALID,23.4212,VALID,82,VALID,0,
2008-12-26, 03:07:04,VALID,1007.69,VALID,0,VALID,95.7642,VALID,0,VALID,23.4212,VALID,86,VALID,0,
2008-12-26, 03:08:04,VALID,1007.71,VALID,0,VALID,95.7718,VALID,0,VALID,23.423,VALID,86,VALID,0,
2008-12-26, 03:09:04,VALID,1007.69,VALID,0,VALID,95.7871,VALID,0,VALID,23.423,VALID,103,VALID,0,
2008-12-26, 03:10:04,VALID,1007.7,VALID,0,VALID,95.7795,VALID,0,VALID,23.4425,VALID,105,VALID,0,
2008-12-26, 03:11:04,VALID,1007.7,VALID,0,VALID,95.7642,VALID,0,VALID,23.4017,VALID,109,VALID,0,
2008-12-26, 03:12:04,VALID,1007.72,VALID,0,VALID,95.749,VALID,0,VALID,23.4212,VALID,118,VALID,0,
2008-12-26, 03:13:04,VALID,1007.71,VALID,0,VALID,95.749,VALID,0,VALID,23.4212,VALID,137,VALID,0.744141,
2008-12-26, 03:14:04,VALID,1007.71,VALID,0,VALID,95.7718,VALID,0,VALID,23.4212,VALID,138,VALID,1.02773,
2008-12-26, 03:15:04,VALID,1007.68,VALID,0,VALID,95.749,VALID,0,VALID,23.4017,VALID,130,VALID,1.2332,
2008-12-26, 03:16:04,VALID,1007.7,VALID,0,VALID,95.7718,VALID,0,VALID,23.4017,VALID,134,VALID,0.794922,
2008-12-26, 03:17:04,VALID,1007.69,VALID,0,VALID,95.7718,VALID,0,VALID,23.423,VALID,130,VALID,0.889844,
2008-12-26, 03:18:04,VALID,1007.68,VALID,0,VALID,95.7718,VALID,0,VALID,23.4017,VALID,137,VALID,0.832422,
2008-12-26, 03:19:04,VALID,1007.66,VALID,0,VALID,95.7642,VALID,0,VALID,23.4017,VALID,137,VALID,0.943359,
2008-12-26, 03:20:04,VALID,1007.66,VALID,0,VALID,95.7718,VALID,0,VALID,23.3823,VALID,125,VALID,0.941016,
2008-12-26, 03:21:04,VALID,1007.66,VALID,0,VALID,95.7718,VALID,0,VALID,23.3823,VALID,121,VALID,0.428906,
2008-12-26, 03:22:04,VALID,1007.64,VALID,0,VALID,95.7642,VALID,0,VALID,23.3823,VALID,124,VALID,0.513672,
2008-12-26, 03:23:04,VALID,1007.64,VALID,0,VALID,95.7642,VALID,0,VALID,23.3823,VALID,147,VALID,0.925391,
2008-12-26, 03:24:04,VALID,1007.62,VALID,0,VALID,95.7642,VALID,0,VALID,23.4035,VALID,154,VALID,0.644531,
2008-12-26, 03:25:04,VALID,1007.63,VALID,0,VALID,95.7718,VALID,0,VALID,23.3628,VALID,147,VALID,0.491797,
2008-12-26, 03:26:04,VALID,1007.63,VALID,0,VALID,95.749,VALID,0,VALID,23.3433,VALID,149,VALID,0.603906,
2008-12-26, 03:27:04,VALID,1007.64,VALID,0,VALID,95.749,VALID,0,VALID,23.3628,VALID,127,VALID,0.442969,
2008-12-26, 03:28:04,VALID,1007.65,VALID,0,VALID,95.7413,VALID,0,VALID,23.384,VALID,127,VALID,0.449219,
2008-12-26, 03:29:04,VALID,1007.64,VALID,0,VALID,95.7642,VALID,0,VALID,23.3628,VALID,127,VALID,0.173828,
2008-12-26, 03:30:04,VALID,1007.66,VALID,0,VALID,95.749,VALID,0,VALID,23.3823,VALID,127,VALID,0,
2008-12-26, 03:31:04,VALID,1007.64,VALID,0,VALID,95.7795,VALID,0,VALID,23.3645,VALID,127,VALID,0,
2008-12-26, 03:32:04,VALID,1007.68,VALID,0,VALID,95.7337,VALID,0,VALID,23.3433,VALID,127,VALID,0,
2008-12-26, 03:33:04,VALID,1007.67,VALID,0,VALID,95.7795,VALID,0,VALID,23.3238,VALID,127,VALID,0,
2008-12-26, 03:34:04,VALID,1007.67,VALID,0,VALID,95.7642,VALID,0,VALID,23.3645,VALID,127,VALID,0,
2008-12-26, 03:35:04,VALID,1007.69,VALID,0,VALID,95.7718,VALID,0,VALID,23.3433,VALID,127,VALID,0,
2008-12-26, 03:36:04,VALID,1007.73,VALID,0,VALID,95.7718,VALID,0,VALID,23.384,VALID,127,VALID,0,
2008-12-26, 03:37:04,VALID,1007.7,VALID,0,VALID,95.7718,VALID,0,VALID,23.3433,VALID,127,VALID,0,
2008-12-26, 03:38:04,VALID,1007.72,VALID,0,VALID,95.7947,VALID,0,VALID,23.3433,VALID,127,VALID,0,
2008-12-26, 03:39:04,VALID,1007.72,VALID,0,VALID,95.7642,VALID,0,VALID,23.3628,VALID,127,VALID,0,
2008-12-26, 03:40:04,VALID,1007.72,VALID,0,VALID,95.7871,VALID,0,VALID,23.3628,VALID,127,VALID,0,
2008-12-26, 03:41:04,VALID,1007.76,VALID,0,VALID,95.7795,VALID,0,VALID,23.3628,VALID,127,VALID,0,
2008-12-26, 03:42:04,VALID,1007.77,VALID,0,VALID,95.7718,VALID,0,VALID,23.3628,VALID,127,VALID,0,
2008-12-26, 03:43:04,VALID,1007.79,VALID,0,VALID,95.7566,VALID,0,VALID,23.3628,VALID,127,VALID,0,
2008-12-26, 03:44:04,VALID,1007.79,VALID,0,VALID,95.7566,VALID,0,VALID,23.3628,VALID,127,VALID,0,
2008-12-26, 03:45:04,VALID,1007.79,VALID,0,VALID,95.7642,VALID,0,VALID,23.3823,VALID,127,VALID,0,
2008-12-26, 03:46:04,VALID,1007.81,VALID,0,VALID,95.7642,VALID,0,VALID,23.3628,VALID,127,VALID,0,
2008-12-26, 03:47:04,VALID,1007.78,VALID,0,VALID,95.7871,VALID,0,VALID,23.3628,VALID,127,VALID,0,
2008-12-26, 03:48:04,VALID,1007.79,VALID,0,VALID,95.7718,VALID,0,VALID,23.3628,VALID,127,VALID,0,
2008-12-26, 03:49:04,VALID,1007.77,VALID,0,VALID,95.7718,VALID,0,VALID,23.3628,VALID,127,VALID,0,
2008-12-26, 03:50:04,VALID,1007.79,VALID,0,VALID,95.7566,VALID,0,VALID,23.3823,VALID,127,VALID,0,